Location: Dal?lpur
(23.6278°N, 91.0820°E)
Time: 14:43:36
(UTC+00:00)

Daily predictions for brighter satellites

Satellite Brightness Start Highest point End
(mag) Time Altitude Azimuth Time Altitude Azimuth Time Altitude Azimuth
Milstar 3 4.3 12:46:17 10° W 12:55:15 78° N 13:13:13 10° ENE
H-2A R/B 2.6 13:02:25 10° SSE 13:07:32 46° ENE 13:12:43 10° N
Cosmos 1953 3.2 13:05:54 10° NNW 13:09:48 54° W 13:13:44 10° S
Meteor 2-5 Rocket 3.9 13:06:26 10° S 13:12:11 88° E 13:18:04 10° N
USA 186 3.2 13:10:55 10° SE 13:13:39 23° ENE 13:16:21 10° NNE
Aureole 3 4.4 13:14:11 10° N 13:19:38 72° E 13:26:26 10° S
SJ 16-02 1.9 13:15:52 10° NNW 13:20:13 62° WSW 13:24:32 10° S
Cosmos 2266 Rocket 4.5 13:16:38 10° SSW 13:22:36 64° W 13:28:39 10° N
OAO 2 Rocket 4.4 13:18:28 10° W 13:23:32 48° NNW 13:28:40 10° NE
Cosmos 2228 3.1 13:22:11 10° N 13:26:30 63° E 13:30:49 10° SSE
Milstar 3 Cent rocket 2.4 13:23:26 10° W 13:27:54 50° SSW 13:32:54 12° SE
Cosmos 1606 Rocket 3.6 13:25:05 10° N 13:29:33 71° E 13:33:59 10° SSE
FREGAT/IRIS 3.3 13:28:36 14° SE 13:30:26 28° ENE 13:32:47 10° NNE
Cosmos 1809 Rocket 4.4 13:24:23 10° S 13:30:31 71° E 13:36:39 10° N
MOS 1 Rocket 3.5 13:26:41 10° N 13:31:36 89° W 13:36:47 10° SSW
Cosmos 1937 Rocket 3.5 13:26:34 10° N 13:31:53 75° ENE 13:37:09 10° SSE
CZ-4 R/B 4.2 13:31:23 10° SW 13:34:02 17° W 13:36:41 10° NW
SL-14 R/B 3.7 13:33:23 10° SSW 13:37:14 65° W 13:41:08 10° N
Meteor 1-24 Rocket 4.1 13:32:59 10° SSW 13:38:40 70° W 13:44:33 10° N
SJ-6B 3.4 13:35:48 13° SE 13:38:53 39° ENE 13:42:38 10° N
Cosmos 1300 3.6 13:35:32 10° NNE 13:38:54 30° E 13:41:03 17° SE
Atlas Centaur 2 2.9 13:33:58 10° W 13:38:59 52° N 13:45:25 10° ENE
NOSS 7 (D) 4.2 13:36:34 10° SSW 13:39:48 76° WNW 13:42:42 10° NNE
Cosmos 2227 Rocket 4.4 13:36:23 10° NW 13:40:44 23° WSW 13:45:04 10° SSW
Cosmos 2219 Rocket 4.1 13:44:18 11° E 13:44:18 11° E 13:44:43 10° E
Cosmos 2360 Rocket 2.4 13:39:09 10° S 13:44:29 47° ESE 13:49:51 10° NNE
FALCON 9 R/B 3.1 13:43:42 10° NNW 13:44:50 12° N 13:45:49 10° NNE
Delta 142 4.3 13:41:38 10° W 13:46:21 41° SSW 13:49:02 19° SE
deb FW4D 4.3 13:45:35 10° W 13:47:30 59° SSW 13:48:43 26° ESE
Cosmos 2263 Rocket 2.9 13:45:15 10° N 13:50:20 36° ENE 13:53:24 21° ESE
Cosmos 2333 Rocket 3.7 13:51:57 16° E 13:51:57 16° E 13:55:03 10° ENE
DELTA 2 R/B (1) 3.5 13:48:13 10° SW 13:53:45 73° SE 13:59:18 10° ENE
Cosmos 1602 Rocket 3.9 13:51:04 16° SSE 13:54:14 42° E 13:58:24 10° NNE
Cosmos 372 Rocket 4.2 13:50:51 10° N 13:55:56 51° ENE 13:59:03 22° SE
CZ-2C R/B 3.8 13:55:03 10° NNE 13:59:50 88° W 14:04:35 10° SSW
Cosmos 1726 Rocket 4.2 13:56:32 10° NNW 14:00:54 58° W 14:05:16 10° S
CZ-2C R/B 4.5 13:57:09 10° S 14:02:34 42° W 14:07:53 10° NNW
SL-16 R/B 3.7 13:57:37 10° SW 14:02:53 40° WNW 14:08:10 10° N
ARGOS 3.6 13:57:48 10° S 14:03:08 61° WSW 14:08:30 10° NNW
Cosmos 1818 3.7 13:58:52 10° SSW 14:04:15 77° WNW 14:09:41 10° NNE
GPS 2-15 Rocket1 3.5 14:00:59 10° W 14:05:46 50° S 14:07:47 31° SE
USA 215 3.1 13:59:50 10° NE 14:06:22 73° SE 14:12:51 10° SSW
Cosmos 1356 Rocket 3.3 14:02:35 10° N 14:06:49 78° E 14:09:04 26° SSE
MetOp-A 4.1 14:04:49 21° SSE 14:08:24 69° ENE 14:13:43 10° N
GPS 2-18 Rocket1 3.6 14:09:43 10° WSW 14:12:59 37° S 14:12:59 37° S
SL-08 RB Rocket 4.2 14:10:06 13° S 14:13:54 57° W 14:18:17 10° NNW
CZ-2C R/B 3.6 14:10:03 10° N 14:15:09 49° WNW 14:20:10 10° SSW
Resurs 01 Rocket 2.3 14:15:25 33° E 14:16:02 34° ENE 14:20:02 10° N
ATLAS CENTAUR R/B 2.7 14:14:40 10° N 14:17:23 34° ENE 14:18:03 32° E
ATLAS 5 CENTAUR R/B 2.4 14:13:56 10° SW 14:17:46 47° WNW 14:21:46 10° NNE
Hubble Space Telescope 2.4 14:20:31 10° SW 14:22:19 21° SSW 14:22:19 21° SSW
Cosmos 2150 Rocket 3.9 14:20:44 10° N 14:25:57 72° ENE 14:27:44 41° SSE
Cosmos 1745 Rocket 3.9 14:21:55 19° S 14:26:23 73° E 14:32:34 10° N
GEOS 3 Rocket 4.1 14:21:24 10° NNE 14:26:44 66° WNW 14:32:00 10° SW
Aurora 2 Rocket 4.5 14:20:35 10° W 14:29:32 87° N 14:36:48 25° E
Iridium 82 4.5 14:34:41 81° W 14:34:41 81° W 14:38:13 10° N
Meteor 2-10 Rocket 3.8 14:33:47 10° N 14:38:46 46° E 14:39:01 46° E
Cosmos 1758 Rocket 3.4 14:39:27 70° ESE 14:39:38 71° E 14:44:05 10° N
SL-08 ROCKET BODY 4.5 14:40:45 21° SSW 14:44:50 74° W 14:50:49 10° N
Resurs 1-3 4.4 14:50:56 39° SW 14:51:54 46° W 14:56:07 10° NNW
SPOT 3 Rocket 4.2 14:52:29 34° SSW 14:54:22 50° W 14:59:25 10° NNW
H-2A ROCKET BODY 3.4 14:51:48 10° WNW 14:56:40 74° NNE 15:10:22 21° E
Cosmos 1125 Rocket 3.3 14:51:34 10° NNW 14:56:50 88° ENE 14:57:09 80° SSE
NOSS 3-3 (A) 3.9 15:00:06 10° SW 15:05:37 69° WNW 15:11:37 10° NNE
NOSS 3-3 (C) 3.9 15:00:11 10° SW 15:05:44 70° WNW 15:11:44 10° NNE
COSMOS 2428 2.6 15:09:51 76° NE 15:09:51 76° NE 15:15:07 10° NNE
Cosmos 1709 Rocket 3.9 15:10:25 65° SSW 15:11:26 86° W 15:17:46 10° N
Geosat 4.4 15:14:15 55° WSW 15:14:15 55° WSW 15:19:07 10° NNW
MetOp-B 4.4 15:23:45 64° WNW 15:23:45 64° WNW 15:28:43 10° NNW
Cosmos 2237 Rocket 4.4 15:27:53 14° NE 15:27:53 14° NE 15:28:47 10° NE
Nadezhda 1 Rocket 4.4 15:19:49 10° NNW 15:26:04 59° W 15:27:06 52° SW
Cosmos 2219 Rocket 2.6 15:25:53 54° W 15:26:29 57° WNW 15:31:59 10° N
BREEZE-M (TANK) 3.9 15:27:21 44° NNW 15:27:21 44° NNW 15:34:33 10° NE
Atlas Centaur 2 3.3 15:23:00 10° WNW 15:28:56 49° N 15:31:06 38° NE
Centaur D-1AR AC-40 4.2 14:49:50 10° WSW 15:32:02 46° S 15:32:02 46° S
Terra 4.0 15:35:01 18° NNE 15:35:01 18° NNE 15:36:29 10° NNE
Cosmos 2263 Rocket 4.2 15:30:06 10° WNW 15:33:52 19° W 15:35:08 17° WSW
Cosmos 2333 Rocket 3.2 15:33:48 34° WSW 15:35:26 42° WNW 15:40:49 10° N
Cosmos 2344 4.3 15:46:16 38° NE 15:46:16 38° NE 15:50:42 10° NE
Resurs 01 Rocket 4.3 15:52:59 12° W 15:52:59 12° W 15:54:26 10° WNW
Cosmos 2278 Rocket 4.5 16:06:09 10° NNE 16:07:39 15° NNE 16:07:39 15° NNE
Cosmos 1844 Rocket 4.2 16:10:14 10° NNW 16:13:16 31° NW 16:13:16 31° NW
ATLAS 2AS CENTAUR R/B 4.3 17:20:13 10° N 17:24:12 29° NNE 17:24:12 29° NNE
H-2A R/B 4.1 19:11:29 77° N 19:11:29 77° N 20:07:20 10° E
H-2A R/B 4.1 19:11:30 77° N 19:11:30 77° N 20:07:20 10° E
CZ-2D R/B 4.3 19:13:06 10° NNE 19:14:55 22° NNE 19:14:55 22° NNE
Lacrosse 5 4.3 19:30:20 19° NNE 19:30:20 19° NNE 19:31:46 10° NNE
SL-16 R/B 3.4 20:01:23 43° NNW 20:01:23 43° NNW 20:05:24 10° NNW
ARIANE 5 R/B 4.1 20:00:29 10° NNE 20:03:44 30° ENE 20:03:44 30° ENE
Cosmos 1833 Rocket 4.5 20:07:02 23° E 20:07:02 23° E 20:11:04 10° NE
CZ-4C R/B 3.0 20:06:39 10° NNW 20:14:40 90° SW 20:15:19 79° SSE
Resurs 1-4 Rocket 4.3 20:25:12 10° NNW 20:26:35 15° NW 20:26:35 15° NW
Meteor 1-5 Rocket 4.3 20:37:05 69° NE 20:37:05 69° NE 20:42:11 10° N
ADEOS II 3.2 20:35:57 10° N 20:39:22 35° NNW 20:39:22 35° NNW
CZ-3A R/B 3.5 20:43:53 20° E 20:43:53 20° E 20:46:07 10° E
NATO 3D Rocket 4.1 20:45:06 68° S 20:45:08 68° S 20:51:02 10° E
Cosmos 2016 Rocket 4.1 20:49:27 58° WNW 20:49:27 58° WNW 20:55:00 10° N
Meteor 2-4 Rocket 4.2 20:45:18 10° N 20:51:09 59° E 20:53:32 35° SE
Meteor 1-18 Rocket 4.5 20:46:39 10° NNW 20:51:35 57° NW 20:51:35 57° NW
Cosmos 1190 Rocket 4.0 20:53:25 73° NNW 20:53:25 73° NNW 20:58:11 10° NNE
Cosmos 1864 Rocket 4.4 20:56:23 63° W 20:56:27 63° W 21:02:31 10° N
Cosmos 1954 Rocket 4.3 20:58:30 54° SE 20:59:13 59° ESE 21:04:23 10° NNE
GPS 2-12 Rocket1 4.2 21:04:48 33° SE 21:04:48 33° SE 21:07:27 10° ESE
DELTA 2 R/B (1) 4.4 20:58:03 10° NW 21:03:30 50° NNE 21:08:56 10° ESE
COBE Rocket 4.2 21:04:25 54° WNW 21:04:25 54° WNW 21:08:39 10° NNW
SL-08 R/B 3.2 21:04:24 80° NNW 21:04:24 80° NNW 21:08:51 10° NNW
Cosmos 1666 3.6 21:07:01 45° N 21:07:01 45° N 21:09:42 10° N
Hubble Space Telescope 2.4 21:11:35 25° SE 21:11:35 25° SE 21:13:26 10° ESE
Cosmos 1437 Rocket 3.1 21:06:32 10° N 21:10:05 65° NNE 21:10:05 65° NNE
COSMOS 2406 3.6 21:11:38 45° WNW 21:11:54 45° WNW 21:17:24 10° N
CZ-2C R/B 2.9 21:09:27 10° NNE 21:13:12 76° NNE 21:13:12 76° NNE
CZ-2C R/B 3.8 21:16:53 10° NE 21:21:10 33° E 21:24:31 14° SSE
SWIFT 2.7 21:22:29 51° SSE 21:22:29 51° SSE 21:26:10 10° E
ERS-2 2.9 21:22:04 29° SE 21:23:36 49° ENE 21:27:08 10° N
Cosmos 2082 Rocket 2.2 21:26:00 38° SSW 21:28:18 86° ESE 21:34:02 10° NNE
Cosmos 1816 Rocket 4.5 21:23:27 10° NNW 21:29:44 65° W 21:33:09 28° SSW
IDEFIX/ARIANE 42P 2.9 21:26:37 10° N 21:31:34 46° WNW 21:32:32 41° WSW
Cosmos 1908 Rocket 4.5 21:29:32 19° SSE 21:32:27 47° E 21:36:45 10° NNE
Cosmos 1356 3.3 21:33:15 76° SSE 21:33:28 82° E 21:36:54 10° N
Meteor 1-11 Rocket 4.2 21:35:03 37° WSW 21:36:05 41° W 21:41:18 10° N
CSL-04 DEB 4.5 21:37:20 44° SSW 21:38:26 61° WSW 21:42:37 10° NNW
Cosmos 1733 Rocket 3.6 21:39:52 38° W 21:40:00 38° W 21:44:02 10° NNW
Cosmos 2233 Rocket 4.4 21:38:40 34° WSW 21:40:29 42° W 21:46:17 10° NNW
CZ-4C R/B 2.8 21:39:35 43° SSE 21:40:35 87° ENE 21:43:54 10° N
Cosmos 676 Rocket 4.4 21:41:11 36° WSW 21:42:30 43° WNW 21:47:29 10° N
ARIANE 5 R/B 4.2 21:40:40 10° NNW 21:43:53 17° WNW 21:44:03 17° WNW
deb Kosmos-1763 3.8 21:43:46 54° SSW 21:44:30 82° WNW 21:48:05 10° NNE
GOES 2 Rocket 4.2 21:39:39 14° WNW 21:44:53 52° N 21:49:41 10° ENE
Delta 198 3.5 21:43:09 32° W 21:45:20 71° SSW 21:49:37 10° ESE
Aureole 1 Rocket 4.4 21:46:23 19° WNW 21:46:23 19° WNW 21:49:03 10° NNW
Meteor 2-11 Rocket 4.4 21:43:57 25° SSW 21:47:38 65° W 21:53:39 10° N
Cosmos 1536 4.1 21:48:14 25° WNW 21:48:14 25° WNW 21:51:22 10° NNW
Okean 3 3.9 21:44:11 10° NNW 21:48:02 37° W 21:48:22 36° WSW
Cosmos 2221 Rocket 3.9 21:45:52 10° NNW 21:50:03 44° W 21:51:26 33° SW
Cosmos 1833 Rocket 3.6 21:48:45 26° W 21:50:22 30° WNW 21:55:15 10° N
ATLAS 2A CENTAUR R/B 0.9 21:51:33 45° S 21:51:57 50° SSE 21:57:06 10° E
Cosmos 1975 4.2 21:48:23 10° SSE 21:52:07 38° E 21:55:50 10° NNE
ALOS 4.4 21:54:35 10° NE 21:58:24 25° E 22:02:12 10° SSE
Cosmos 1066 Rocket 4.4 21:53:46 10° N 21:59:38 83° E 22:05:29 10° S
Delta 128 4.5 21:55:35 10° WNW 22:01:19 58° N 22:06:12 10° E
CZ-3A R/B 4.2 22:07:14 15° SSW 22:10:56 38° SE 22:30:36 10° ENE
deb Chang Zheng 4 3.9 22:08:31 10° N 22:12:35 46° WNW 22:15:36 17° SW
OAO 3 Copernicus 4.3 22:08:42 10° WNW 22:13:40 64° SSW 22:18:38 10° SE
Cosmos 220 Rocket 4.1 22:09:40 10° NNW 22:13:44 48° WSW 22:17:46 10° S
Centaur AC-72 2.9 22:09:06 16° WSW 22:14:35 60° S 22:20:56 10° E
H-2A R/B 2.9 22:11:41 15° SSW 22:14:42 31° W 22:18:40 10° NW
ATLAS 2A CENTAUR R/B 2.9 22:09:08 10° W 22:16:30 55° N 22:19:03 10° ENE
FENGYUN 3A 4.4 22:17:56 10° NNE 22:23:14 54° E 22:28:31 10° S
CZ-4B R/B 1.4 22:22:17 10° SSE 22:25:38 87° ENE 22:29:03 10° N
Meteor 1-31 Rocket 3.1 22:22:13 10° NNE 22:26:08 69° E 22:30:02 10° S
Cosmos 1263 4.0 22:23:25 10° NNW 22:26:22 64° W 22:29:24 10° S
ATLAS 2A CENTAUR R/B 1.6 22:23:34 10° W 22:28:29 62° NNW 22:30:40 10° ENE
GPS 2-14 Rocket1 3.2 22:26:41 15° WSW 22:29:57 49° S 22:34:00 10° E
Cosmos 1544 3.4 22:27:24 10° SSW 22:30:50 43° W 22:34:15 10° N
Cosmos 1378 3.1 22:27:21 10° NNW 22:31:02 63° W 22:34:44 10° S
Cosmos 1743 4.2 22:30:10 13° WSW 22:32:11 19° W 22:34:59 10° NNW
Cosmos 2369 3.9 22:28:43 10° NNW 22:34:27 82° ENE 22:40:10 10° SSE
Cosmos 1464 Rocket 4.5 22:29:58 10° SSW 22:35:54 41° W 22:41:53 10° NNW
Cosmos 192 4.4 22:33:36 10° NNW 22:38:30 89° E 22:43:23 10° SSE
Cosmos 1656 4.1 22:33:34 10° NW 22:38:31 37° WSW 22:43:29 10° S
SAR-Lupe-4 4.0 22:37:42 10° S 22:41:04 39° W 22:44:26 10° NNW
Cosmos 2034 Rocket 4.1 22:35:06 10° SSW 22:41:07 55° W 22:47:09 10° N
Cosmos 1484 Rocket 2.7 22:38:41 10° N 22:42:32 69° WNW 22:46:19 10° SSW
Sich 1 Rocket 3.6 22:38:17 10° S 22:42:50 72° W 22:47:24 10° N
CENTAUR R/B 3.5 22:38:50 10° S 22:43:48 40° ESE 22:49:22 10° NE
GPS 2-12 Rocket1 3.8 22:42:16 10° WSW 22:46:22 34° SSW 22:50:23 10° SE
Cosmos 1378 Rocket 4.4 22:42:39 10° NNW 22:46:29 30° W 22:50:19 10° SSW
NATO 3D Rocket 3.7 22:42:10 10° W 22:48:33 70° S 22:53:28 10° ESE
DELTA 2 R/B (1) 4.2 22:44:48 10° WNW 22:49:49 34° SW 22:54:49 10° SSE
Hubble Space Telescope 2.5 22:47:48 10° WSW 22:50:14 15° SSW 22:52:40 10° S
